EW9240 Weather Reports


Display with metric or nautical units.
time (UTC)temp
F
wind
direction
speed
MPH
gust
MPH
rain 1hr
in
rain 24hr
in
rain mn
in
humidity
%
barometer
mb
20260505223058 62 274 0.0 4.0 0.00 0.00 0.00 73 1014.0
20260505221545 63 275 0.0 1.0 0.00 0.00 0.00 73 1014.0
20260505220052 63 155 0.0 1.0 0.00 0.00 0.00 73 1014.1
20260505214538 62 297 0.0 3.0 0.00 0.00 0.00 74 1014.1
20260505213015 62 304 0.0 2.0 0.00 0.00 0.00 73 1014.2
20260505211554 62 279 0.0 3.0 0.00 0.00 0.00 75 1014.2
20260505210040 62 302 0.0 3.0 0.00 0.00 0.00 73 1014.3
20260505204501 62 285 0.0 2.0 0.00 0.00 0.00 73 1014.5
20260505203031 62 282 0.0 3.0 0.00 0.00 0.00 74 1014.5
20260505201513 61 126 0.0 3.0 0.00 0.00 0.00 76 1014.6
20260505200053 60 123 0.0 2.0 0.00 0.00 0.00 77 1014.7
20260505194538 60 290 0.0 2.0 0.00 0.00 0.00 78 1014.8
20260505193017 60 118 0.0 1.0 0.00 0.00 0.00 78 1014.9
20260505191501 59 290 0.0 3.0 0.00 0.00 0.00 79 1014.8
20260505190043 59 221 0.0 2.0 0.00 0.00 0.00 79 1014.8
20260505184514 58 147 0.0 1.0 0.00 0.00 0.00 80 1014.8
20260505183000 58 214 0.0 1.0 0.00 0.00 0.00 80 1014.8
20260505181546 58 117 0.0 3.0 0.00 0.00 0.00 80 1014.8
20260505180044 58 214 0.0 1.0 0.00 0.00 0.00 80 1014.7
20260505174512 57 208 0.0 3.0 0.00 0.00 0.00 81 1014.7
20260505173055 57 89 0.0 1.0 0.00 0.00 0.00 80 1014.6
20260505171542 57 206 0.0 1.0 0.00 0.00 0.00 81 1014.6
20260505170023 57 205 0.0 2.0 0.00 0.00 0.00 81 1014.5
20260505164508 57 216 0.0 2.0 0.00 0.00 0.00 81 1014.4
20260505163046 56 207 0.0 3.0 0.00 0.00 0.00 82 1014.3
20260505161519 56 219 0.0 1.0 0.00 0.00 0.00 83 1014.3
20260505153007 55 214 0.0 1.0 0.00 0.00 0.00 85 1014.2
20260505151550 55 215 0.0 1.0 0.00 0.00 0.00 85 1014.2
20260505124541 54 188 0.0 2.0 0.00 0.00 0.00 84 1013.1
20260505123025 54 199 0.0 0.0 0.00 0.00 0.00 84 1013.0
20260505121605 54 215 0.0 1.0 0.00 0.00 0.00 84 1013.1
20260505120045 54 213 0.0 1.0 0.00 0.00 0.00 84 1013.0
20260505114531 54 216 0.0 2.0 0.00 0.00 0.00 84 1013.0
20260505113003 55 225 0.0 0.0 0.00 0.00 0.00 84 1012.9
20260505111548 55 195 0.0 0.0 0.00 0.00 0.00 84 1012.9
20260505101557 55 210 0.0 2.0 0.00 0.00 0.00 83 1012.5
20260505100047 55 179 0.0 1.0 0.00 0.00 0.00 84 1012.5
20260505094501 55 210 1.0 3.0 0.00 0.00 0.00 83 1012.3
20260505093024 55 195 0.0 2.0 0.00 0.00 0.00 83 1012.3
20260505091507 55 193 0.0 1.0 0.00 0.00 0.00 82 1012.2
20260505090050 56 219 0.0 2.0 0.00 0.00 0.00 82 1012.1
20260505084528 56 219 0.0 2.0 0.00 0.00 0.00 81 1011.9
20260505083015 56 184 0.0 1.0 0.00 0.00 0.00 81 1011.9
20260505081604 57 215 0.0 3.0 0.00 0.00 0.00 80 1011.7
20260505080046 57 214 0.0 2.0 0.00 0.00 0.00 80 1011.7
20260505074545 57 213 0.0 3.0 0.00 0.00 0.00 80 1011.7
20260505073034 57 193 0.0 4.0 0.00 0.00 0.00 79 1011.4
20260505071508 58 208 1.0 5.0 0.00 0.00 0.00 78 1011.1
20260505070058 59 232 2.0 5.0 0.00 0.00 0.00 78 1011.0
20260505064519 60 182 1.0 6.0 0.00 0.00 0.00 76 1010.7
20260505063117 60 224 0.0 3.0 0.00 0.00 0.00 77 1010.6
20260505061551 61 199 0.0 7.0 0.00 0.00 0.00 75 1010.4
20260505060037 62 208 1.0 4.0 0.00 0.00 0.00 74 1010.3
20260505054511 64 214 0.0 2.0 0.00 0.00 0.00 73 1010.1
20260505053101 65 200 0.0 2.0 0.00 0.00 0.00 72 1010.1
20260505051542 65 282 0.0 3.0 0.00 0.00 0.00 71 1010.0
20260505041521 67 226 0.0 1.0 0.00 0.00 0.00 74 1009.1
20260505034545 67 158 0.0 0.0 0.00 0.00 0.00 73 1008.6
20260505033024 68 143 0.0 3.0 0.00 0.00 0.00 72 1008.4
20260505031508 69 213 0.0 2.0 0.00 0.00 0.00 72 1008.3
20260505030033 69 156 0.0 3.0 0.00 0.00 0.00 71 1008.2
20260505024508 70 232 0.0 4.0 0.00 0.00 0.00 69 1008.0
20260505023053 70 167 2.0 0.0 0.00 0.00 0.00 69 1008.0
20260505021541 70 214 0.0 5.0 0.00 0.00 0.00 68 1007.9
20260505020019 71 211 2.0 6.0 0.00 0.00 0.00 67 1008.0
20260505014555 71 218 3.0 7.0 0.00 0.00 0.00 67 1008.0
20260505013036 71 222 0.0 6.0 0.00 0.00 0.00 67 1008.1
20260505011511 71 213 2.0 4.0 0.00 0.00 0.00 66 1008.3
20260505010118 71 195 2.0 5.0 0.00 0.00 0.00 65 1008.2
20260505004537 71 197 1.0 7.0 0.00 0.00 0.00 65 1008.3
20260505003022 71 220 0.0 8.0 0.00 0.00 0.00 65 1008.4
20260505001534 72 219 2.0 4.0 0.00 0.00 0.00 64 1008.4
20260505000021 71 117 1.0 5.0 0.00 0.00 0.00 64 1008.6
20260504234604 72 151 0.0 4.0 0.00 0.00 0.00 64 1008.6
20260504233036 71 172 0.0 4.0 0.00 0.00 0.00 64 1008.6
20260504231522 71 220 0.0 4.0 0.00 0.00 0.00 64 1008.8
20260504230004 71 217 1.0 6.0 0.00 0.00 0.00 65 1008.8
20260504224505 70 210 1.0 5.0 0.00 0.00 0.00 65 1009.1